Location: St. Louis
(38.6270°N, 90.1994°W)
Time: 08:02:04
(UTC-06:00)

Transit 2A - Pass Details

Date: 01 December 2021
Orbit: 591 x 967 km, 66.7° (Epoch: 20 January)

Event Time Altitude Azimuth Distance (km) Brightness Sun altitude
Rises 08:04:00 0° 341° (NNW) 3,655 9.0 9.6°
Reaches altitude 10° 08:07:21 10° 358° (N) 2,712 8.5 10.2°
Maximum altitude 08:11:56 20° 44° (NE) 2,051 8.4 10.8°
Drops below altitude 10° 08:16:25 10° 90° (E) 2,647 9.7 11.5°
Sets 08:19:37 0° 107° (ESE) 3,541 10.8 12.0°
